Location: Puketoi
(40.5833°S, 176.0167°E)
Time: 15:10:27
(UTC+00:00)

Cosmos 1459 Rocket - Pass Details

Date: 08 February 2023
Orbit: 936 x 1000 km, 83.0° (Epoch: 22 March)

Event Time Altitude Azimuth Distance (km) Brightness Sun altitude
Exits shadow 13:46:35 60° 214° (SW) 1,081 4.2 -31.7°
Drops below altitude 10° 13:51:47 10° 178° (S) 2,682 7.1 -31.3°
Sets 13:54:19 0° 175° (S) 3,635 8.0 -31.1°
